Date String (YYYY-MM-DD hh:mm:ss) UTC,Instrument flags,absolute air pressure of the measurement (hPa),sample flow rate (lpm),inlet stack bypass flow (lpm),air temperature of the measurement (°C),ambient temperature measured by the external sensor (°C),aerosol sample conditioner tube jacket temperature (°C),OPC LED temperature (°C),internal box temperature (°C),relative humidity of the measurement (%),span deviation,mass concentration of particles derived from Lorenz-Mie calculation of OPC scattering (μg/m³),mass concentration of particles derived from Lorenz-Mie calculation of OPC scattering (μg/m³),mass concentration of particles derived from Lorenz-Mie calculation of OPC scattering (μg/m³)
DateTimeUTC,F1_M11,P_M11,Q1_M11,Q2_M11,T1_M11,T2_M11,T3_M11,T4_M11,T5_M11,U1_M11,ZSPAN_M11,X0_M11,X2_M11,X1_M11
2023-09-17 03:00:00,SystemResetWarning,0835.9,5.00,000.00,028.0,025.0,000.0,036.5,029.4,20.8,0000.0,0009.37,0004.97,0004.39
2023-09-17 03:01:00,SystemResetWarning,0835.9,5.00,000.00,028.0,025.4,000.0,036.5,029.5,20.9,0000.0,0009.41,0004.96,0004.40
2023-09-17 03:02:00,SystemResetWarning,0835.9,4.99,000.00,028.0,025.7,000.0,036.5,029.5,20.8,0000.0,0009.45,0004.95,0004.40
2023-09-17 03:03:00,SystemResetWarning,0835.8,5.00,000.00,028.0,025.9,000.0,036.5,029.5,20.8,0000.0,0009.17,0004.92,0004.39
2023-09-17 03:04:00,SystemResetWarning,0835.9,5.00,000.00,028.0,026.1,000.0,036.5,029.6,20.3,0000.0,0008.86,0004.89,0004.40
2023-09-17 03:05:00,SystemResetWarning,0835.9,5.00,000.00,028.0,026.3,000.0,036.5,029.6,20.7,0000.0,0008.81,0004.90,0004.42
2023-09-17 03:06:00,SystemResetWarning,0835.9,5.01,000.00,028.1,026.4,000.0,036.4,029.7,20.6,0000.0,0009.14,0004.89,0004.43
2023-09-17 03:07:00,SystemResetWarning,0835.9,5.00,000.00,028.1,026.5,000.0,036.4,029.7,20.6,0000.0,0009.04,0004.89,0004.44
2023-09-17 03:08:00,SystemResetWarning,0835.9,5.01,000.00,028.1,026.6,000.0,036.4,029.7,20.7,0000.0,0009.04,0004.88,0004.45
2023-09-17 03:09:00,SystemResetWarning,0835.9,5.00,000.00,028.1,026.7,000.0,036.5,029.8,20.6,0000.0,0008.93,0004.87,0004.45
2023-09-17 03:10:00,SystemResetWarning,0835.9,4.99,000.00,028.1,026.8,000.0,036.5,029.8,20.6,0000.0,0008.90,0004.86,0004.45
2023-09-17 03:11:00,SystemResetWarning,0835.8,5.00,000.00,028.2,026.9,000.0,036.5,029.8,20.6,0000.5,0008.83,0004.87,0004.46
2023-09-17 03:12:00,SystemResetWarning,0835.8,5.00,000.00,028.2,026.9,000.0,036.5,029.9,20.4,0001.5,0008.79,0004.88,0004.45
2023-09-17 03:13:00,SystemResetWarning,0835.9,5.00,000.00,028.2,026.9,000.0,036.5,029.9,20.4,0001.8,0009.41,0004.86,0004.46
2023-09-17 03:14:00,SystemResetWarning,0835.8,5.00,000.00,028.2,027.0,000.0,036.5,029.9,20.4,0002.1,0009.81,0004.86,0004.47
2023-09-17 03:15:00,SystemResetWarning,0835.9,5.00,000.00,028.3,027.0,000.0,036.5,029.9,20.4,0002.4,0009.90,0004.89,0004.47
2023-09-17 03:16:00,SystemResetWarning,0835.9,5.00,000.00,028.3,027.0,000.0,036.5,030.0,20.2,0002.1,0010.00,0004.88,0004.46
2023-09-17 03:17:00,SystemResetWarning,0835.8,4.99,000.00,028.3,027.1,000.0,036.5,030.0,20.2,0002.0,0009.30,0004.87,0004.45
2023-09-17 03:18:00,SystemResetWarning,0835.8,5.00,000.00,028.3,027.1,000.0,036.6,030.0,20.2,0001.7,0009.03,0004.88,0004.46
2023-09-17 03:19:00,SystemResetWarning,0835.9,5.00,000.00,028.3,027.1,000.0,036.6,030.0,20.4,0001.5,0008.98,0004.87,0004.46
2023-09-17 03:20:00,SystemResetWarning,0835.9,4.99,000.00,028.4,027.1,000.0,036.6,030.0,20.4,0001.5,0008.99,0004.89,0004.47
2023-09-17 03:21:00,SystemResetWarning,0835.9,5.00,000.00,028.4,027.1,000.0,036.6,030.1,20.3,0001.3,0009.02,0004.91,0004.47
2023-09-17 03:22:00,SystemResetWarning,0835.9,5.00,000.00,028.4,027.2,000.0,036.6,030.1,20.3,0001.5,0009.04,0004.90,0004.47
2023-09-17 03:23:00,SystemResetWarning,0835.9,5.00,000.00,028.4,027.2,000.0,036.7,030.1,20.3,0001.5,0008.96,0004.86,0004.47
2023-09-17 03:24:00,SystemResetWarning,0835.9,5.00,000.00,028.4,027.2,000.0,036.7,030.1,20.1,0001.5,0008.55,0004.87,0004.47
2023-09-17 03:25:00,SystemResetWarning,0835.9,5.00,000.00,028.5,027.2,000.0,036.7,030.1,20.0,0001.5,0007.86,0004.88,0004.47
2023-09-17 03:26:00,SystemResetWarning,0835.8,5.00,000.00,028.5,027.2,000.0,036.7,030.1,20.2,0000.0,0008.58,0004.86,0004.47
2023-09-17 03:27:00,SystemResetWarning,0835.8,5.00,000.00,028.5,027.2,000.0,036.7,030.2,20.0,0000.0,0008.59,0004.86,0004.48
2023-09-17 03:28:00,SystemResetWarning,0835.8,5.00,000.00,028.5,027.3,000.0,036.7,030.2,19.9,0000.0,0008.77,0004.86,0004.49
2023-09-17 03:29:00,SystemResetWarning,0835.8,5.00,000.00,028.5,027.3,000.0,036.8,030.2,20.0,0000.3,0009.33,0004.87,0004.48
2023-09-17 03:30:00,SystemResetWarning,0835.8,5.00,000.00,028.5,027.3,000.0,036.8,030.2,20.0,0000.0,0009.41,0004.88,0004.47
2023-09-17 03:31:00,SystemResetWarning,0835.8,5.00,000.00,028.6,027.3,000.0,036.8,030.2,20.0,0000.0,0009.49,0004.88,0004.47
2023-09-17 03:32:00,SystemResetWarning,0835.8,5.00,000.00,028.6,027.3,000.0,036.8,030.2,19.9,0000.2,0009.70,0004.88,0004.45
2023-09-17 03:33:00,SystemResetWarning,0835.9,4.99,000.00,028.6,027.3,000.0,036.8,030.2,19.9,0000.1,0009.80,0004.89,0004.44
2023-09-17 03:34:00,SystemResetWarning,0835.9,5.00,000.00,028.6,027.3,000.0,036.9,030.3,19.9,-000.0,0009.93,0004.93,0004.44
2023-09-17 03:35:00,SystemResetWarning,0835.9,5.00,000.00,028.6,027.4,000.0,036.9,030.3,19.8,0000.3,0009.96,0004.93,0004.45
2023-09-17 03:36:00,SystemResetWarning,0835.8,5.00,000.00,028.6,027.4,000.0,036.9,030.3,19.8,0000.3,0009.97,0004.93,0004.45
2023-09-17 03:37:00,SystemResetWarning,0835.8,5.01,000.00,028.7,027.4,000.0,036.9,030.3,19.8,0000.9,0009.27,0004.95,0004.45
2023-09-17 03:38:00,SystemResetWarning,0835.9,4.98,000.00,028.6,026.1,000.0,036.9,029.9,19.9,0001.1,0009.30,0004.99,0004.45
2023-09-17 03:39:00,SystemResetWarning,0835.8,5.01,000.00,028.5,024.5,000.0,036.8,029.5,20.0,0001.4,0009.10,0005.03,0004.45
2023-09-17 03:40:00,SystemResetWarning,0835.8,5.02,000.00,028.4,024.3,000.0,036.7,029.4,20.2,0000.8,0008.79,0005.04,0004.45
2023-09-17 03:41:00,SystemResetWarning,0835.8,4.99,000.00,028.2,024.5,000.0,036.7,029.4,20.2,0000.4,0008.64,0005.01,0004.44
2023-09-17 03:42:00,SystemResetWarning,0835.8,5.00,000.00,028.2,024.8,000.0,036.7,029.4,20.3,0000.9,0008.55,0005.00,0004.45
2023-09-17 03:43:00,SystemResetWarning,0835.8,5.00,000.00,028.1,025.1,000.0,036.7,029.5,20.6,0000.2,0008.45,0005.03,0004.45
2023-09-17 03:44:00,SystemResetWarning,0835.8,5.01,000.00,028.1,025.5,000.0,036.6,029.5,20.6,0000.0,0008.31,0005.05,0004.46
2023-09-17 03:45:00,SystemResetWarning,0835.8,5.00,000.00,028.1,025.7,000.0,036.6,029.6,20.5,0000.0,0008.25,0005.04,0004.46
2023-09-17 03:46:00,SystemResetWarning,0835.8,4.99,000.00,028.1,026.0,000.0,036.6,029.6,20.4,0000.0,0008.31,0005.07,0004.46
2023-09-17 03:47:00,SystemResetWarning,0835.8,4.98,000.00,028.1,026.1,000.0,036.6,029.6,20.4,0000.0,0008.89,0005.07,0004.47
2023-09-17 03:48:00,SystemResetWarning,0835.8,5.00,000.00,028.1,026.3,000.0,036.6,029.7,20.3,0000.0,0009.55,0005.04,0004.46
2023-09-17 03:49:00,SystemResetWarning,0835.8,5.01,000.00,028.1,026.4,000.0,036.6,029.7,20.3,0000.0,0009.70,0005.01,0004.46
2023-09-17 03:50:00,SystemResetWarning,0835.8,5.01,000.00,028.1,026.5,000.0,036.5,029.7,20.4,0000.0,0009.64,0004.97,0004.46
2023-09-17 03:51:00,SystemResetWarning,0835.8,4.99,000.00,028.2,026.6,000.0,036.6,029.8,20.2,0000.0,0009.55,0004.95,0004.45
2023-09-17 03:52:00,SystemResetWarning,0835.8,4.99,000.00,028.2,026.7,000.0,036.6,029.8,20.2,0000.0,0009.55,0004.97,0004.46
2023-09-17 03:53:00,SystemResetWarning,0835.8,5.01,000.00,028.2,026.8,000.0,036.6,029.8,20.1,0000.0,0010.10,0005.00,0004.45
2023-09-17 03:54:00,SystemResetWarning,0835.8,5.01,000.00,028.2,026.8,000.0,036.6,029.9,20.1,0000.0,0010.10,0004.97,0004.46
2023-09-17 03:55:00,SystemResetWarning,0835.8,5.00,000.00,028.2,026.9,000.0,036.6,029.9,20.1,0000.0,0010.03,0004.93,0004.45
2023-09-17 03:56:00,SystemResetWarning,0835.9,5.00,000.00,028.3,026.9,000.0,036.6,029.9,20.0,0000.0,0010.12,0004.92,0004.44
2023-09-17 03:57:00,SystemResetWarning,0835.8,5.00,000.00,028.3,027.0,000.0,036.6,029.9,20.0,0000.0,0010.22,0004.93,0004.44
2023-09-17 03:58:00,SystemResetWarning,0835.9,5.00,000.00,028.3,027.0,000.0,036.6,029.9,20.0,0000.0,0009.95,0004.94,0004.44
2023-09-17 03:59:00,SystemResetWarning,0835.8,5.00,000.00,028.3,027.0,000.0,036.6,030.0,20.1,0000.0,0009.32,0004.97,0004.44
